START_TIME,STEP,MOV.,M34,t_acc.,L5,t_acc.,L18,t_acc.,L14,t_acc.
1981-08-25 00:00:25.710 ,1,0,0.,12.0,0.,12.0,0.,12.0,0.,12.0
1981-08-25 00:00:37.710 ,1,0,0.,12.0,0.,12.0,0.,12.0,0.,12.0
1981-08-25 00:00:49.710 ,0,1,0.,12.0,0.,12.0,0.,12.0,0.,12.0
1981-08-25 00:01:01.710 ,0,1,0.,12.0,0.,12.0,0.,12.0,0.,12.0
1981-08-25 00:01:13.710 ,0,0,0.,12.0,0.,12.0,0.,12.0,0.,12.0
1981-08-25 00:01:25.710 ,0,0,0.,12.0,0.,12.0,0.,12.0,0.,12.0
1981-08-25 00:01:37.710 ,0,1,0.,12.0,0.,12.0,0.,12.0,0.,12.0
1981-08-25 00:01:49.710 ,0,1,0.,12.0,0.,12.0,0.,12.0,0.,12.0
1981-08-25 00:02:01.710 ,0,0,0.,12.0,0.,12.0,0.,12.0,0.,12.0
1981-08-25 00:02:13.710 ,0,0,0.,12.0,0.,12.0,0.,12.0,0.,12.0
1981-08-25 00:02:25.710 ,1,1,0.,12.0,0.,12.0,0.,12.0,0.,12.0
1981-08-25 00:02:37.710 ,1,1,0.,12.0,0.,12.0,0.,12.0,0.,12.0
1981-08-25 00:02:49.710 ,1,0,0.,12.0,0.,12.0,0.,12.0,0.,12.0
1981-08-25 00:03:01.710 ,1,0,0.,12.0,0.,12.0,0.,12.0,0.,12.0
1981-08-25 00:03:13.710 ,2,1,0.,12.0,0.,12.0,0.,12.0,0.,12.0
1981-08-25 00:03:25.710 ,2,1,0.,12.0,0.,12.0,0.,12.0,0.,12.0
1981-08-25 00:03:37.710 ,2,0,0.,12.0,0.,12.0,0.,12.0,0.,12.0
1981-08-25 00:03:49.710 ,2,0,0.,12.0,0.,12.0,0.,12.0,0.,12.0
1981-08-25 00:04:01.710 ,3,1,0.,12.0,0.,12.0,0.,12.0,0.,12.0
1981-08-25 00:04:13.710 ,3,1,0.,12.0,0.,12.0,0.,12.0,0.,12.0
1981-08-25 00:04:25.710 ,3,0,0.,12.0,0.,12.0,0.,12.0,0.,12.0
1981-08-25 00:04:37.710 ,3,0,0.,12.0,0.,12.0,0.,12.0,0.,12.0
1981-08-25 00:04:49.710 ,4,1,0.,12.0,0.,12.0,0.,12.0,0.,12.0
1981-08-25 00:05:01.710 ,4,1,0.,12.0,0.,12.0,0.,12.0,0.,12.0
1981-08-25 00:05:13.710 ,4,0,0.,12.0,0.,12.0,0.,12.0,0.,12.0
1981-08-25 00:05:25.710 ,4,0,0.,12.0,0.,12.0,0.,12.0,0.,12.0
1981-08-25 00:05:37.710 ,5,1,0.,12.0,0.,12.0,0.,12.0,0.,12.0
1981-08-25 00:05:49.710 ,5,1,0.,12.0,0.,12.0,0.,12.0,0.,12.0
1981-08-25 00:06:01.710 ,5,0,0.,12.0,0.,12.0,0.,12.0,0.,12.0
1981-08-25 00:06:13.710 ,5,0,0.,12.0,0.,12.0,0.,12.0,0.,12.0
1981-08-25 00:06:25.710 ,6,1,0.,12.0,0.,12.0,0.,12.0,0.,12.0
1981-08-25 00:06:37.710 ,6,1,0.,12.0,0.,12.0,0.,12.0,0.,12.0
1981-08-25 00:06:49.710 ,6,0,0.,12.0,0.,12.0,0.,12.0,0.,12.0
1981-08-25 00:07:01.710 ,6,0,0.,12.0,0.,12.0,0.,12.0,0.,12.0
1981-08-25 00:07:13.710 ,7,1,0.,12.0,0.,12.0,0.,12.0,0.,12.0
1981-08-25 00:07:25.710 ,7,1,0.,12.0,0.,12.0,0.,12.0,0.,12.0
1981-08-25 00:07:37.710 ,7,0,0.,12.0,0.,12.0,0.,12.0,0.,12.0
1981-08-25 00:07:49.710 ,7,0,0.,12.0,0.,12.0,0.,12.0,0.,12.0
1981-08-25 00:08:01.710 ,7,1,0.,12.0,0.,12.0,0.,12.0,0.,12.0
1981-08-25 00:08:13.710 ,7,1,0.,12.0,0.,12.0,0.,12.0,0.,12.0
1981-08-25 00:08:25.710 ,7,0,0.,12.0,0.,12.0,0.,12.0,0.,12.0
1981-08-25 00:08:37.710 ,7,0,0.,12.0,0.,12.0,0.,12.0,0.,12.0
1981-08-25 00:08:49.710 ,6,1,0.,12.0,0.,12.0,0.,12.0,0.,12.0
1981-08-25 00:09:01.710 ,6,1,0.,12.0,0.,12.0,0.,12.0,0.,12.0
1981-08-25 00:09:13.710 ,6,0,0.,12.0,0.,12.0,0.,12.0,0.,12.0
1981-08-25 00:09:25.710 ,6,0,0.,12.0,0.,12.0,0.,12.0,0.,12.0
1981-08-25 00:09:37.710 ,5,1,0.,12.0,0.,12.0,0.,12.0,0.,12.0
1981-08-25 00:09:49.710 ,5,1,0.,12.0,0.,12.0,0.,12.0,0.,12.0
1981-08-25 00:10:01.710 ,0,0,0.,12.0,0.,12.0,0.,12.0,0.,12.0
1981-08-25 00:10:13.710 ,0,0,0.,12.0,0.,12.0,0.,12.0,0.,12.0
1981-08-25 00:11:01.710 ,0,0,,0,,0,,0,,0
1981-08-25 00:11:13.710 ,0,0,0.,12.0,0.,12.0,0.,12.0,0.,12.0
1981-08-25 00:11:13.710 ,3,1,0.,12.0,0.,12.0,0.,12.0,0.,12.0
1981-08-25 00:11:25.710 ,3,1,0.,12.0,0.,12.0,0.,12.0,0.,12.0
1981-08-25 00:11:37.710 ,3,0,0.,12.0,0.,12.0,0.,12.0,0.,12.0
1981-08-25 00:11:49.710 ,3,0,0.,12.0,0.,12.0,0.,12.0,0.,12.0
1981-08-25 00:12:01.710 ,2,1,0.,12.0,0.,12.0,0.,12.0,0.,12.0
1981-08-25 00:12:13.710 ,2,1,0.,12.0,0.,12.0,0.,12.0,0.,12.0
1981-08-25 00:12:25.710 ,2,0,0.,12.0,0.,12.0,0.,12.0,0.,12.0
1981-08-25 00:12:37.710 ,2,0,0.,12.0,0.,12.0,0.,12.0,0.,12.0
1981-08-25 00:12:49.710 ,1,1,0.,12.0,0.,12.0,0.,12.0,0.,12.0
1981-08-25 00:13:01.710 ,1,1,0.,12.0,0.,12.0,0.,12.0,0.,12.0
1981-08-25 00:13:13.710 ,1,0,0.,12.0,0.,12.0,0.,12.0,0.,12.0
1981-08-25 00:13:25.710 ,1,0,0.,12.0,0.,12.0,0.,12.0,0.,12.0
1981-08-25 00:13:37.710 ,0,0,0.,12.0,0.,12.0,0.,12.0,0.,12.0
1981-08-25 00:13:49.710 ,0,0,0.,12.0,0.,12.0,0.,12.0,0.,12.0
1981-08-25 00:14:01.710 ,0,0,0.,12.0,0.,12.0,0.,12.0,0.,12.0
1981-08-25 00:14:13.710 ,0,0,0.,12.0,0.,12.0,0.,12.0,0.,12.0
1981-08-25 00:14:25.710 ,0,1,0.,12.0,0.,12.0,0.,12.0,0.,12.0
1981-08-25 00:14:37.710 ,0,1,0.,12.0,0.,12.0,0.,12.0,0.,12.0
1981-08-25 00:14:49.710 ,0,0,0.,12.0,0.,12.0,0.,12.0,0.,12.0
1981-08-25 00:15:01.710 ,0,0,0.,12.0,0.,12.0,0.,12.0,0.,12.0
1981-08-25 00:15:13.710 ,1,1,0.,12.0,0.,12.0,0.,12.0,0.,12.0
1981-08-25 00:15:25.710 ,1,1,0.,12.0,0.,12.0,0.,12.0,0.,12.0
1981-08-25 00:15:37.710 ,1,0,0.,12.0,0.,12.0,0.,12.0,0.,12.0
1981-08-25 00:15:49.710 ,1,0,0.,12.0,0.,12.0,0.,12.0,0.,12.0
1981-08-25 00:16:01.710 ,2,1,0.,12.0,0.,12.0,0.,12.0,0.,12.0
1981-08-25 00:16:13.710 ,2,1,0.,12.0,0.,12.0,0.,12.0,0.,12.0
1981-08-25 00:16:25.710 ,2,0,0.,12.0,0.,12.0,0.,12.0,0.,12.0
1981-08-25 00:16:37.710 ,2,0,0.,12.0,0.,12.0,0.,12.0,0.,12.0
1981-08-25 00:16:49.710 ,3,1,0.,12.0,0.,12.0,0.,12.0,0.,12.0
1981-08-25 00:17:01.710 ,3,1,0.,12.0,0.,12.0,0.,12.0,0.,12.0
1981-08-25 00:17:13.710 ,3,0,0.,12.0,0.,12.0,0.,12.0,0.,12.0
1981-08-25 00:17:25.710 ,3,0,0.,12.0,0.,12.0,0.,12.0,0.,12.0
1981-08-25 00:17:37.710 ,4,1,0.,12.0,0.,12.0,0.,12.0,0.,12.0
1981-08-25 00:17:49.710 ,4,1,0.,12.0,0.,12.0,0.,12.0,0.,12.0
1981-08-25 00:18:01.710 ,4,0,0.,12.0,0.,12.0,0.,12.0,0.,12.0
1981-08-25 00:18:13.710 ,4,0,0.,12.0,0.,12.0,0.,12.0,0.,12.0
1981-08-25 00:18:25.710 ,5,1,0.,12.0,0.,12.0,0.,12.0,0.,12.0
1981-08-25 00:18:37.710 ,5,1,0.,12.0,0.,12.0,0.,12.0,0.,12.0
1981-08-25 00:18:49.710 ,5,0,0.,12.0,0.,12.0,0.,12.0,0.,12.0
1981-08-25 00:19:01.710 ,5,0,0.,12.0,0.,12.0,0.,12.0,0.,12.0
1981-08-25 00:19:13.710 ,6,1,0.,12.0,0.,12.0,0.,12.0,0.,12.0
1981-08-25 00:19:25.710 ,6,1,0.,12.0,0.,12.0,0.,12.0,0.,12.0
1981-08-25 00:19:37.710 ,6,0,0.,12.0,0.,12.0,0.,12.0,0.,12.0
1981-08-25 00:19:49.710 ,6,0,0.,12.0,0.,12.0,0.,12.0,0.,12.0
1981-08-25 00:20:01.710 ,7,1,0.,12.0,0.,12.0,0.,12.0,0.,12.0
1981-08-25 00:20:13.710 ,7,1,0.,12.0,0.,12.0,0.,12.0,0.,12.0
1981-08-25 00:20:25.710 ,7,0,0.,12.0,0.,12.0,0.,12.0,0.,12.0
1981-08-25 00:20:37.710 ,7,0,0.,12.0,0.,12.0,0.,12.0,0.,12.0
1981-08-25 00:20:49.710 ,7,1,0.,12.0,0.,12.0,0.,12.0,0.,12.0
1981-08-25 00:21:01.710 ,7,1,0.,12.0,0.,12.0,0.,12.0,0.,12.0
1981-08-25 00:21:13.710 ,7,0,0.,12.0,0.,12.0,0.,12.0,0.,12.0
1981-08-25 00:21:25.710 ,7,0,0.,12.0,0.,12.0,0.,12.0,0.,12.0
1981-08-25 00:21:37.710 ,6,1,0.,12.0,0.,12.0,0.,12.0,0.,12.0
1981-08-25 00:21:49.710 ,6,1,0.,12.0,0.,12.0,0.,12.0,0.,12.0
1981-08-25 00:22:01.710 ,6,0,0.,12.0,0.,12.0,0.,12.0,0.,12.0
1981-08-25 00:22:13.710 ,6,0,0.,12.0,0.,12.0,0.,12.0,0.,12.0
1981-08-25 00:22:25.710 ,5,1,0.,12.0,0.,12.0,0.,12.0,0.,12.0
1981-08-25 00:22:37.710 ,5,1,0.,12.0,0.,12.0,0.,12.0,0.,12.0
1981-08-25 00:22:49.710 ,5,0,0.,12.0,0.,12.0,0.,12.0,0.,12.0
1981-08-25 00:23:01.710 ,5,0,0.,12.0,0.,12.0,0.,12.0,0.,12.0
1981-08-25 00:23:13.710 ,4,1,0.,12.0,0.,12.0,0.,12.0,0.,12.0
1981-08-25 00:23:25.710 ,4,1,0.,12.0,0.,12.0,0.,12.0,0.,12.0
1981-08-25 00:23:37.710 ,4,0,0.,12.0,0.,12.0,0.,12.0,0.,12.0
1981-08-25 00:23:49.710 ,4,0,0.,12.0,0.,12.0,0.,12.0,0.,12.0
1981-08-25 00:24:01.710 ,3,1,0.,12.0,0.,12.0,0.,12.0,0.,12.0
1981-08-25 00:24:13.710 ,3,1,0.,12.0,0.,12.0,0.,12.0,0.,12.0
1981-08-25 00:24:25.710 ,3,0,0.,12.0,0.,12.0,0.,12.0,0.,12.0
1981-08-25 00:24:37.710 ,3,0,0.,12.0,0.,12.0,0.,12.0,0.,12.0
1981-08-25 00:24:49.710 ,2,1,0.,12.0,0.,12.0,0.,12.0,0.,12.0
1981-08-25 00:25:01.710 ,2,1,0.,12.0,0.,12.0,0.,12.0,0.,12.0
1981-08-25 00:25:13.710 ,2,0,0.,12.0,0.,12.0,0.,12.0,0.,12.0
1981-08-25 00:25:25.710 ,2,0,0.,12.0,0.,12.0,0.,12.0,0.,12.0
1981-08-25 00:25:37.710 ,1,1,0.,12.0,0.,12.0,0.,12.0,0.,12.0
1981-08-25 00:25:49.710 ,1,1,0.,12.0,0.,12.0,0.,12.0,0.,12.0
1981-08-25 00:26:01.710 ,1,0,0.,12.0,0.,12.0,0.,12.0,0.,12.0
1981-08-25 00:26:13.710 ,1,0,0.,12.0,0.,12.0,0.,12.0,0.,12.0
1981-08-25 00:26:25.710 ,0,1,0.,12.0,0.,12.0,0.,12.0,0.,12.0
1981-08-25 00:26:37.710 ,0,1,0.,12.0,0.,12.0,0.,12.0,0.,12.0
1981-08-25 00:26:49.710 ,0,0,0.,12.0,0.,12.0,0.,12.0,0.,12.0
1981-08-25 00:27:01.710 ,0,0,0.,12.0,0.,12.0,0.,12.0,0.,12.0
1981-08-25 00:27:13.710 ,0,1,0.,12.0,0.,12.0,0.,12.0,0.,12.0
1981-08-25 00:27:25.710 ,0,1,0.,12.0,0.,12.0,0.,12.0,0.,12.0
1981-08-25 00:27:37.710 ,0,0,0.,12.0,0.,12.0,0.,12.0,0.,12.0
1981-08-25 00:27:49.710 ,0,0,0.,12.0,0.,12.0,0.,12.0,0.,12.0
1981-08-25 00:28:01.710 ,1,1,0.,12.0,0.,12.0,0.,12.0,0.,12.0
1981-08-25 00:28:13.710 ,1,1,0.,12.0,0.,12.0,0.,12.0,0.,12.0
1981-08-25 00:28:25.710 ,1,0,0.,12.0,0.,12.0,0.,12.0,0.,12.0
1981-08-25 00:28:37.710 ,1,0,0.,12.0,0.,12.0,0.,12.0,0.,12.0
1981-08-25 00:28:49.710 ,2,1,0.,12.0,0.,12.0,0.,12.0,0.,12.0
1981-08-25 00:29:01.710 ,2,1,0.,12.0,0.,12.0,0.,12.0,0.,12.0
1981-08-25 00:29:13.710 ,2,0,0.,12.0,0.,12.0,0.,12.0,0.,12.0
1981-08-25 00:29:25.710 ,2,0,0.,12.0,0.,12.0,0.,12.0,0.,12.0
1981-08-25 00:29:37.710 ,3,1,0.,12.0,0.,12.0,0.,12.0,0.,12.0
1981-08-25 00:29:49.710 ,3,1,0.,12.0,0.,12.0,0.,12.0,0.,12.0
1981-08-25 00:30:01.710 ,3,0,0.,12.0,0.,12.0,0.,12.0,0.,12.0
1981-08-25 00:30:13.710 ,3,0,0.,12.0,0.,12.0,0.,12.0,0.,12.0
1981-08-25 00:30:25.710 ,4,1,0.,12.0,0.,12.0,0.,12.0,0.,12.0
1981-08-25 00:30:37.710 ,4,1,0.,12.0,0.,12.0,0.,12.0,0.,12.0
1981-08-25 00:30:49.710 ,4,0,0.,12.0,0.,12.0,0.,12.0,0.,12.0
1981-08-25 00:31:01.710 ,4,0,0.,12.0,0.,12.0,0.,12.0,0.,12.0
1981-08-25 00:31:13.710 ,5,1,0.,12.0,0.,12.0,0.,12.0,0.,12.0
1981-08-25 00:31:25.710 ,5,1,0.,12.0,0.,12.0,0.,12.0,0.,12.0
1981-08-25 00:31:37.710 ,5,0,0.,12.0,0.,12.0,0.,12.0,0.,12.0
1981-08-25 00:31:49.710 ,5,0,0.,12.0,0.,12.0,0.,12.0,0.,12.0
1981-08-25 00:32:01.710 ,6,1,0.,12.0,0.,12.0,0.,12.0,0.,12.0
1981-08-25 00:32:13.710 ,6,1,0.,12.0,0.,12.0,0.,12.0,0.,12.0
1981-08-25 00:32:25.710 ,0,0,0.,12.0,0.,12.0,0.,12.0,0.,12.0
1981-08-25 00:32:37.710 ,0,0,,0,,0,,0,,0
1981-08-25 00:32:36.510 ,0,0,,0,,0,,0,,0
1981-08-25 00:32:48.510 ,0,0,,0,,0,,0,,0
1981-08-25 00:32:37.110 ,0,0,,0,,0,,0,,0
1981-08-25 00:32:49.110 ,0,0,0.,12.0,0.,12.0,0.,12.0,0.,12.0
1981-08-25 00:32:49.710 ,7,1,0.,12.0,0.,12.0,0.,12.0,0.,12.0
1981-08-25 00:33:01.710 ,7,1,0.,12.0,0.,12.0,0.,12.0,0.,12.0
1981-08-25 00:33:13.710 ,7,0,0.,12.0,0.,12.0,0.,12.0,0.,12.0
1981-08-25 00:33:25.710 ,7,0,0.,12.0,0.,12.0,0.,12.0,0.,12.0
1981-08-25 00:33:37.710 ,7,1,0.,12.0,0.,12.0,0.,12.0,0.,12.0
1981-08-25 00:33:49.710 ,7,1,0.,12.0,0.,12.0,0.,12.0,0.,12.0
1981-08-25 00:34:01.710 ,7,0,0.,12.0,0.,12.0,0.,12.0,0.,12.0
1981-08-25 00:34:13.710 ,7,0,0.,12.0,0.,12.0,0.,12.0,0.,12.0
1981-08-25 00:34:25.710 ,6,1,0.,12.0,0.,12.0,0.,12.0,0.,12.0
1981-08-25 00:34:37.710 ,6,1,0.,12.0,0.,12.0,0.,12.0,0.,12.0
1981-08-25 00:34:49.710 ,6,0,0.,12.0,0.,12.0,0.,12.0,0.,12.0
1981-08-25 00:35:01.710 ,6,0,0.,12.0,0.,12.0,0.,12.0,0.,12.0
1981-08-25 00:35:13.710 ,5,1,0.,12.0,0.,12.0,0.,12.0,0.,12.0
1981-08-25 00:35:25.710 ,5,1,0.,12.0,0.,12.0,0.,12.0,0.,12.0
1981-08-25 00:35:37.710 ,5,0,0.,12.0,0.,12.0,0.,12.0,0.,12.0
1981-08-25 00:35:49.710 ,5,0,0.,12.0,0.,12.0,0.,12.0,0.,12.0
1981-08-25 00:36:01.710 ,4,1,0.,12.0,0.,12.0,0.,12.0,0.,12.0
1981-08-25 00:36:13.710 ,4,1,0.,12.0,0.,12.0,0.,12.0,0.,12.0
1981-08-25 00:36:25.710 ,4,0,0.,12.0,0.,12.0,0.,12.0,0.,12.0
1981-08-25 00:36:37.710 ,4,0,0.,12.0,0.,12.0,0.,12.0,0.,12.0
1981-08-25 00:36:49.710 ,3,1,0.,12.0,0.,12.0,0.,12.0,0.,12.0
1981-08-25 00:37:01.710 ,3,1,0.,12.0,0.,12.0,0.,12.0,0.,12.0
1981-08-25 00:37:13.710 ,3,0,0.,12.0,0.,12.0,0.,12.0,0.,12.0
1981-08-25 00:37:25.710 ,3,0,0.,12.0,0.,12.0,0.,12.0,0.,12.0
1981-08-25 00:37:37.710 ,2,1,0.,12.0,0.,12.0,0.,12.0,0.,12.0
1981-08-25 00:37:49.710 ,2,1,0.,12.0,0.,12.0,0.,12.0,0.,12.0
1981-08-25 00:38:01.710 ,2,0,0.,12.0,0.,12.0,0.,12.0,0.,12.0
1981-08-25 00:38:13.710 ,2,0,0.,12.0,0.,12.0,0.,12.0,0.,12.0
1981-08-25 00:38:25.710 ,1,1,0.,12.0,0.,12.0,0.,12.0,0.,12.0
1981-08-25 00:38:37.710 ,1,1,0.,12.0,0.,12.0,0.,12.0,0.,12.0
1981-08-25 00:38:49.710 ,1,0,0.,12.0,0.,12.0,0.,12.0,0.,12.0
1981-08-25 00:39:01.710 ,1,0,0.,12.0,0.,12.0,0.,12.0,0.,12.0
1981-08-25 00:39:13.710 ,0,1,0.,12.0,0.,12.0,0.,12.0,0.,12.0
1981-08-25 00:39:25.710 ,0,1,0.,12.0,0.,12.0,0.,12.0,0.,12.0
1981-08-25 00:39:37.710 ,0,0,0.,12.0,0.,12.0,0.,12.0,0.,12.0
1981-08-25 00:39:49.710 ,0,0,0.,12.0,0.,12.0,0.,12.0,0.,12.0
1981-08-25 00:40:01.710 ,0,1,0.,12.0,0.,12.0,0.,12.0,0.,12.0
1981-08-25 00:40:13.710 ,0,1,0.,12.0,0.,12.0,0.,12.0,0.,12.0
1981-08-25 00:40:25.710 ,0,0,0.,12.0,0.,12.0,0.,12.0,0.,12.0
1981-08-25 00:40:37.710 ,0,0,0.,12.0,0.,12.0,0.,12.0,0.,12.0
1981-08-25 00:40:49.710 ,1,1,0.,12.0,0.,12.0,0.,12.0,0.,12.0
1981-08-25 00:41:01.710 ,1,1,0.,12.0,0.,12.0,0.,12.0,0.,12.0
1981-08-25 00:41:13.710 ,1,0,0.,12.0,0.,12.0,0.,12.0,0.,12.0
1981-08-25 00:41:25.710 ,1,0,0.,12.0,0.,12.0,0.,12.0,0.,12.0
1981-08-25 00:41:37.710 ,2,1,0.,12.0,0.,12.0,0.,12.0,0.,12.0
1981-08-25 00:41:49.710 ,2,1,0.,12.0,0.,12.0,0.,12.0,0.,12.0
1981-08-25 00:42:01.710 ,2,0,0.,12.0,0.,12.0,0.,12.0,0.,12.0
1981-08-25 00:42:13.710 ,2,0,0.,12.0,0.,12.0,0.,12.0,0.,12.0
1981-08-25 00:42:25.710 ,3,1,0.,12.0,0.,12.0,0.,12.0,0.,12.0
1981-08-25 00:42:37.710 ,3,1,0.,12.0,0.,12.0,0.,12.0,0.,12.0
1981-08-25 00:42:49.710 ,3,0,0.,12.0,0.,12.0,0.,12.0,0.,12.0
1981-08-25 00:43:01.710 ,3,0,0.,12.0,0.,12.0,0.,12.0,0.,12.0
1981-08-25 00:43:13.710 ,4,1,0.,12.0,0.,12.0,0.,12.0,0.,12.0
1981-08-25 00:43:25.710 ,4,1,0.,12.0,0.,12.0,0.,12.0,0.,12.0
1981-08-25 00:43:37.710 ,4,0,0.,12.0,0.,12.0,0.,12.0,0.,12.0
1981-08-25 00:43:49.710 ,4,0,0.,12.0,0.,12.0,0.,12.0,0.,12.0
1981-08-25 00:44:01.710 ,5,1,0.,12.0,0.,12.0,0.,12.0,0.,12.0
1981-08-25 00:44:13.710 ,5,1,0.,12.0,0.,12.0,0.,12.0,0.,12.0
1981-08-25 00:44:25.710 ,5,0,0.,12.0,0.,12.0,0.,12.0,0.,12.0
1981-08-25 00:44:37.710 ,5,0,0.,12.0,0.,12.0,0.,12.0,0.,12.0
1981-08-25 00:44:49.710 ,6,1,0.,12.0,0.,12.0,0.,12.0,0.,12.0
1981-08-25 00:45:01.710 ,6,1,0.,12.0,0.,12.0,0.,12.0,0.,12.0
1981-08-25 00:45:13.710 ,6,0,0.,12.0,0.,12.0,0.,12.0,0.,12.0
1981-08-25 00:45:25.710 ,6,0,0.,12.0,0.,12.0,0.,12.0,0.,12.0
1981-08-25 00:45:37.710 ,7,1,0.,12.0,0.,12.0,0.,12.0,0.,12.0
1981-08-25 00:45:49.710 ,7,1,0.,12.0,0.,12.0,0.,12.0,0.,12.0
1981-08-25 00:46:01.710 ,7,0,0.,12.0,0.,12.0,0.,12.0,0.,12.0
1981-08-25 00:46:13.710 ,7,0,0.,12.0,0.,12.0,0.,12.0,0.,12.0
1981-08-25 00:46:25.710 ,7,1,0.,12.0,0.,12.0,0.,12.0,0.,12.0
1981-08-25 00:46:37.710 ,7,1,0.,12.0,0.,12.0,0.,12.0,0.,12.0
1981-08-25 00:46:49.710 ,7,0,0.,12.0,0.,12.0,0.,12.0,0.,12.0
1981-08-25 00:47:01.710 ,7,0,0.,12.0,0.,12.0,0.,12.0,0.,12.0
1981-08-25 00:47:13.710 ,6,1,0.,12.0,0.,12.0,0.,12.0,0.,12.0
1981-08-25 00:47:25.710 ,6,1,0.,12.0,0.,12.0,0.,12.0,0.,12.0
1981-08-25 00:47:37.710 ,6,0,0.,12.0,0.,12.0,0.,12.0,0.,12.0
1981-08-25 00:47:49.710 ,6,0,0.,12.0,0.,12.0,0.,12.0,0.,12.0
1981-08-25 00:48:01.710 ,5,1,0.,12.0,0.,12.0,0.,12.0,0.,12.0
1981-08-25 00:48:13.710 ,5,1,0.,12.0,0.,12.0,0.,12.0,0.,12.0
1981-08-25 00:48:25.710 ,5,0,0.,12.0,0.,12.0,0.,12.0,0.,12.0
1981-08-25 00:48:37.710 ,5,0,0.,12.0,0.,12.0,0.,12.0,0.,12.0
1981-08-25 00:48:49.710 ,4,1,0.,12.0,0.,12.0,0.,12.0,0.,12.0
1981-08-25 00:49:01.710 ,4,1,0.,12.0,0.,12.0,0.,12.0,0.,12.0
1981-08-25 00:49:13.710 ,4,0,0.,12.0,0.,12.0,0.,12.0,0.,12.0
1981-08-25 00:49:25.710 ,4,0,0.,12.0,0.,12.0,0.,12.0,0.,12.0
1981-08-25 00:49:37.710 ,3,1,0.,12.0,0.,12.0,0.,12.0,0.,12.0
1981-08-25 00:49:49.710 ,3,1,0.,12.0,0.,12.0,0.,12.0,0.,12.0
1981-08-25 00:50:01.710 ,3,0,0.,12.0,0.,12.0,0.,12.0,0.,12.0
1981-08-25 00:50:13.710 ,3,0,0.,12.0,0.,12.0,0.,12.0,0.,12.0
1981-08-25 00:50:25.710 ,2,1,0.,12.0,0.,12.0,0.,12.0,0.,12.0
1981-08-25 00:50:37.710 ,2,1,0.,12.0,0.,12.0,0.,12.0,0.,12.0
1981-08-25 00:50:49.710 ,2,0,0.,12.0,0.,12.0,0.,12.0,0.,12.0
1981-08-25 00:51:01.710 ,2,0,0.,12.0,0.,12.0,0.,12.0,0.,12.0
1981-08-25 00:51:13.710 ,1,1,0.,12.0,0.,12.0,0.,12.0,0.,12.0
1981-08-25 00:51:25.710 ,1,1,0.,12.0,0.,12.0,0.,12.0,0.,12.0
1981-08-25 00:51:37.710 ,1,0,0.,12.0,0.,12.0,0.,12.0,0.,12.0
1981-08-25 00:51:49.710 ,1,0,0.,12.0,0.,12.0,0.,12.0,0.,12.0
1981-08-25 00:52:01.710 ,0,1,0.,12.0,0.,12.0,0.,12.0,0.,12.0
1981-08-25 00:52:13.710 ,0,1,0.,12.0,0.,12.0,0.,12.0,0.,12.0
1981-08-25 00:52:25.710 ,0,0,0.,12.0,0.,12.0,0.,12.0,0.,12.0
1981-08-25 00:52:37.710 ,0,0,0.,12.0,0.,12.0,0.,12.0,0.,12.0
1981-08-25 00:52:49.710 ,0,1,0.,12.0,0.,12.0,0.,12.0,0.,12.0
1981-08-25 00:53:01.710 ,0,1,0.,12.0,0.,12.0,0.,12.0,0.,12.0
1981-08-25 00:53:13.710 ,0,0,0.,12.0,0.,12.0,0.,12.0,0.,12.0
1981-08-25 00:53:25.710 ,0,0,0.,12.0,0.,12.0,0.,12.0,0.,12.0
1981-08-25 00:53:37.710 ,1,1,0.,12.0,0.,12.0,0.,12.0,0.,12.0
1981-08-25 00:53:49.710 ,1,1,0.,12.0,0.,12.0,0.,12.0,0.,12.0
1981-08-25 00:54:01.710 ,1,0,0.,12.0,0.,12.0,0.,12.0,0.,12.0
1981-08-25 00:54:13.710 ,1,0,0.,12.0,0.,12.0,0.,12.0,0.,12.0
1981-08-25 00:54:25.710 ,2,1,0.,12.0,0.,12.0,0.,12.0,0.,12.0
1981-08-25 00:54:37.710 ,2,1,0.,12.0,0.,12.0,0.,12.0,0.,12.0
1981-08-25 00:54:49.710 ,2,0,0.,12.0,0.,12.0,0.,12.0,0.,12.0
1981-08-25 00:55:01.710 ,2,0,0.,12.0,0.,12.0,0.,12.0,0.,12.0
1981-08-25 00:55:13.710 ,3,1,0.,12.0,0.,12.0,0.,12.0,0.,12.0
1981-08-25 00:55:25.710 ,3,1,0.,12.0,0.,12.0,0.,12.0,0.,12.0
1981-08-25 00:55:37.710 ,3,0,0.,12.0,0.,12.0,0.,12.0,0.,12.0
1981-08-25 00:55:49.710 ,3,0,0.,12.0,0.,12.0,0.,12.0,0.,12.0
1981-08-25 00:56:01.710 ,4,1,0.,12.0,0.,12.0,0.,12.0,0.,12.0
1981-08-25 00:56:13.710 ,4,1,0.,12.0,0.,12.0,0.,12.0,0.,12.0
1981-08-25 00:56:25.710 ,4,0,0.,12.0,0.,12.0,0.,12.0,0.,12.0
1981-08-25 00:56:37.710 ,4,0,0.,12.0,0.,12.0,0.,12.0,0.,12.0
1981-08-25 00:56:49.710 ,5,1,0.,12.0,0.,12.0,0.,12.0,0.,12.0
1981-08-25 00:57:01.710 ,5,1,0.,12.0,0.,12.0,0.,12.0,0.,12.0
1981-08-25 00:57:13.710 ,5,0,0.,12.0,0.,12.0,0.,12.0,0.,12.0
1981-08-25 00:57:25.710 ,5,0,0.,12.0,0.,12.0,0.,12.0,0.,12.0
1981-08-25 00:57:37.710 ,6,1,0.,12.0,0.,12.0,0.,12.0,0.,12.0
1981-08-25 00:57:49.710 ,6,1,0.,12.0,0.,12.0,0.,12.0,0.,12.0
1981-08-25 00:58:01.710 ,6,0,0.,12.0,0.,12.0,0.,12.0,0.,12.0
1981-08-25 00:58:13.710 ,6,0,0.,12.0,0.,12.0,0.,12.0,0.,12.0
1981-08-25 00:58:25.710 ,7,1,0.,12.0,0.,12.0,0.,12.0,0.,12.0
1981-08-25 00:58:37.710 ,7,1,0.,12.0,0.,12.0,0.,12.0,0.,12.0
1981-08-25 00:58:49.710 ,7,0,0.,12.0,0.,12.0,0.,12.0,0.,12.0
1981-08-25 00:59:01.710 ,7,0,0.,12.0,0.,12.0,0.,12.0,0.,12.0
1981-08-25 00:59:13.710 ,7,1,0.,12.0,0.,12.0,0.,12.0,0.,12.0
1981-08-25 00:59:25.710 ,7,1,0.,12.0,0.,12.0,0.,12.0,0.,12.0
1981-08-25 00:59:37.710 ,7,0,0.,12.0,0.,12.0,0.,12.0,0.,12.0
1981-08-25 00:59:49.710 ,7,0,0.,12.0,0.,12.0,0.,12.0,0.,12.0
1981-08-25 01:00:01.710 ,6,1,0.,12.0,0.,12.0,0.,12.0,0.,12.0
1981-08-25 01:00:13.710 ,6,1,0.,12.0,0.,12.0,0.,12.0,0.,12.0
1981-08-25 01:00:25.710 ,6,0,0.,12.0,0.,12.0,0.,12.0,0.,12.0
1981-08-25 01:00:37.710 ,6,0,0.,12.0,0.,12.0,0.,12.0,0.,12.0
1981-08-25 01:00:49.710 ,5,1,0.,12.0,0.,12.0,0.,12.0,0.,12.0
1981-08-25 01:01:01.710 ,5,1,0.,12.0,0.,12.0,0.,12.0,0.,12.0
1981-08-25 01:01:13.710 ,5,0,0.,12.0,0.,12.0,0.,12.0,0.,12.0
1981-08-25 01:01:25.710 ,5,0,0.,12.0,0.,12.0,0.,12.0,0.,12.0
1981-08-25 01:01:37.710 ,4,1,0.,12.0,0.,12.0,0.,12.0,0.,12.0
1981-08-25 01:01:49.710 ,4,1,0.,12.0,0.,12.0,0.,12.0,0.,12.0
1981-08-25 01:02:01.710 ,4,0,0.,12.0,0.,12.0,0.,12.0,0.,12.0
1981-08-25 01:02:13.710 ,4,0,0.,12.0,0.,12.0,0.,12.0,0.,12.0
1981-08-25 01:02:25.710 ,3,1,0.,12.0,0.,12.0,0.,12.0,0.,12.0
1981-08-25 01:02:37.710 ,3,1,0.,12.0,0.,12.0,0.,12.0,0.,12.0
1981-08-25 01:02:49.710 ,3,0,0.,12.0,0.,12.0,0.,12.0,0.,12.0
1981-08-25 01:03:01.710 ,3,0,0.,12.0,0.,12.0,0.,12.0,0.,12.0
1981-08-25 01:03:13.710 ,2,1,0.,12.0,0.,12.0,0.,12.0,0.,12.0
1981-08-25 01:03:25.710 ,2,1,0.,12.0,0.,12.0,0.,12.0,0.,12.0
1981-08-25 01:03:37.710 ,2,0,0.,12.0,0.,12.0,0.,12.0,0.,12.0
1981-08-25 01:03:49.710 ,2,0,0.,12.0,0.,12.0,0.,12.0,0.,12.0
1981-08-25 01:04:01.710 ,1,1,0.,12.0,0.,12.0,0.,12.0,0.,12.0
1981-08-25 01:04:13.710 ,1,1,0.,12.0,0.,12.0,0.,12.0,0.,12.0
1981-08-25 01:04:25.710 ,1,0,0.,12.0,0.,12.0,0.,12.0,0.,12.0
1981-08-25 01:04:37.710 ,1,0,0.,12.0,0.,12.0,0.,12.0,0.,12.0
1981-08-25 01:04:49.710 ,0,1,0.,12.0,0.,12.0,0.,12.0,0.,12.0
1981-08-25 01:05:01.710 ,0,1,0.,12.0,0.,12.0,0.,12.0,0.,12.0
1981-08-25 01:05:13.710 ,0,0,0.,12.0,0.,12.0,0.,12.0,0.,12.0
1981-08-25 01:05:25.710 ,0,0,0.,12.0,0.,12.0,0.,12.0,0.,12.0
1981-08-25 01:05:37.710 ,0,1,0.,12.0,0.,12.0,0.,12.0,0.,12.0
1981-08-25 01:05:49.710 ,0,1,0.,12.0,0.,12.0,0.,12.0,0.,12.0
1981-08-25 01:06:01.710 ,0,0,0.,12.0,0.,12.0,0.,12.0,0.,12.0
1981-08-25 01:06:13.710 ,0,0,0.,12.0,0.,12.0,0.,12.0,0.,12.0
1981-08-25 01:06:25.710 ,1,1,0.,12.0,0.,12.0,0.,12.0,0.,12.0
1981-08-25 01:06:37.710 ,1,1,0.,12.0,0.,12.0,0.,12.0,0.,12.0
1981-08-25 01:06:49.710 ,1,0,0.,12.0,0.,12.0,0.,12.0,0.,12.0
1981-08-25 01:07:01.710 ,1,0,0.,12.0,0.,12.0,0.,12.0,0.,12.0
1981-08-25 01:07:13.710 ,2,1,0.,12.0,0.,12.0,0.,12.0,0.,12.0
1981-08-25 01:07:25.710 ,2,1,0.,12.0,0.,12.0,0.,12.0,0.,12.0
1981-08-25 01:07:37.710 ,2,0,0.,12.0,0.,12.0,0.,12.0,0.,12.0
1981-08-25 01:07:49.710 ,2,0,0.,12.0,0.,12.0,0.,12.0,0.,12.0
1981-08-25 01:08:01.710 ,3,1,0.,12.0,0.,12.0,0.,12.0,0.,12.0
1981-08-25 01:08:13.710 ,3,1,0.,12.0,0.,12.0,0.,12.0,0.,12.0
1981-08-25 01:08:25.710 ,3,0,0.,12.0,0.,12.0,0.,12.0,0.,12.0
1981-08-25 01:08:37.710 ,3,0,0.,12.0,0.,12.0,0.,12.0,0.,12.0
1981-08-25 01:08:49.710 ,4,1,0.,12.0,0.,12.0,0.,12.0,0.,12.0
1981-08-25 01:09:01.710 ,4,1,0.,12.0,0.,12.0,0.,12.0,0.,12.0
1981-08-25 01:09:13.710 ,4,0,0.,12.0,0.,12.0,0.,12.0,0.,12.0
1981-08-25 01:09:25.710 ,4,0,1.,12.0,0.,12.0,0.,12.0,0.,12.0
1981-08-25 01:09:37.710 ,5,1,0.,12.0,0.,12.0,0.,12.0,0.,12.0
1981-08-25 01:09:49.710 ,5,1,0.,12.0,0.,12.0,0.,12.0,0.,12.0
1981-08-25 01:10:01.710 ,5,0,0.,12.0,0.,12.0,0.,12.0,0.,12.0
1981-08-25 01:10:13.710 ,5,0,0.,12.0,0.,12.0,0.,12.0,0.,12.0
1981-08-25 01:10:25.710 ,6,1,0.,12.0,0.,12.0,0.,12.0,0.,12.0
1981-08-25 01:10:37.710 ,6,1,0.,12.0,0.,12.0,0.,12.0,0.,12.0
1981-08-25 01:10:49.710 ,6,0,0.,12.0,0.,12.0,0.,12.0,0.,12.0
1981-08-25 01:11:01.710 ,6,0,0.,12.0,0.,12.0,0.,12.0,0.,12.0
1981-08-25 01:11:13.710 ,7,1,0.,12.0,0.,12.0,0.,12.0,0.,12.0
1981-08-25 01:11:25.710 ,7,1,0.,12.0,0.,12.0,0.,12.0,0.,12.0
1981-08-25 01:11:37.710 ,7,0,0.,12.0,0.,12.0,0.,12.0,0.,12.0
1981-08-25 01:11:49.710 ,7,0,0.,12.0,0.,12.0,0.,12.0,0.,12.0
1981-08-25 01:12:01.710 ,7,1,0.,12.0,0.,12.0,0.,12.0,0.,12.0
1981-08-25 01:12:13.710 ,7,1,0.,12.0,0.,12.0,0.,12.0,0.,12.0
1981-08-25 01:12:25.710 ,7,0,0.,12.0,0.,12.0,0.,12.0,0.,12.0
1981-08-25 01:12:37.710 ,7,0,0.,12.0,0.,12.0,0.,12.0,0.,12.0
1981-08-25 01:12:49.710 ,6,1,0.,12.0,0.,12.0,0.,12.0,0.,12.0
1981-08-25 01:13:01.710 ,6,1,0.,12.0,0.,12.0,0.,12.0,0.,12.0
1981-08-25 01:13:13.710 ,6,0,0.,12.0,0.,12.0,0.,12.0,0.,12.0
1981-08-25 01:13:25.710 ,6,0,0.,12.0,0.,12.0,0.,12.0,0.,12.0
1981-08-25 01:13:37.710 ,5,1,0.,12.0,0.,12.0,0.,12.0,0.,12.0
1981-08-25 01:13:49.710 ,5,1,0.,12.0,0.,12.0,0.,12.0,0.,12.0
1981-08-25 01:14:01.710 ,5,0,0.,12.0,0.,12.0,0.,12.0,0.,12.0
1981-08-25 01:14:13.710 ,5,0,0.,12.0,0.,12.0,0.,12.0,0.,12.0
1981-08-25 01:14:25.710 ,4,1,0.,12.0,0.,12.0,0.,12.0,0.,12.0
1981-08-25 01:14:37.710 ,4,1,0.,12.0,0.,12.0,0.,12.0,0.,12.0
1981-08-25 01:14:49.710 ,4,0,0.,12.0,0.,12.0,0.,12.0,0.,12.0
1981-08-25 01:15:01.710 ,4,0,0.,12.0,0.,12.0,0.,12.0,0.,12.0
1981-08-25 01:15:13.710 ,3,1,0.,12.0,0.,12.0,0.,12.0,0.,12.0
1981-08-25 01:15:25.710 ,3,1,0.,12.0,0.,12.0,0.,12.0,0.,12.0
1981-08-25 01:15:37.710 ,3,0,0.,12.0,0.,12.0,0.,12.0,0.,12.0
1981-08-25 01:15:49.710 ,3,0,0.,12.0,0.,12.0,0.,12.0,0.,12.0
1981-08-25 01:16:01.710 ,2,1,0.,12.0,0.,12.0,0.,12.0,0.,12.0
1981-08-25 01:16:13.710 ,2,1,0.,12.0,0.,12.0,0.,12.0,0.,12.0
1981-08-25 01:16:25.710 ,2,0,0.,12.0,0.,12.0,0.,12.0,0.,12.0
1981-08-25 01:16:37.710 ,2,0,0.,12.0,0.,12.0,0.,12.0,0.,12.0
1981-08-25 01:16:49.710 ,1,1,0.,12.0,0.,12.0,0.,12.0,0.,12.0
1981-08-25 01:17:01.710 ,1,1,0.,12.0,0.,12.0,0.,12.0,0.,12.0
1981-08-25 01:17:13.710 ,1,0,0.,12.0,0.,12.0,0.,12.0,0.,12.0